Temperature
17 17 17 17 17 17 17 16 17 18 18 18 17 17 18 17 16 16 17 17 17 17 17 17 17 18 18 18 18 17 17 17 17 17 17 18 18 18 18 17 17 17 17
17 17 17 17 17 17 17 17 18 17 17 17 17 17 17 17 16 16 16 17 17 17 17 17 17 17 18 18 18 17 17 17 17 17 17 17 17 17 17 17 17 17 17
17 17 18 17 17 17 17 17 17 17 17 16 16 16 16 16 16 16 16 16 16 17 17 17 17 17 17 17 17 17 17 17 17 17 17 17 17 17 17 17 16 17 17
17 17 17 17 17 17 17 17 17 17 17 17 17 16 16 16 16 16 16 16 16 16 16 17 17 17 17 17 17 17 17 17 17 17 17 17 17 17 17 16 16 16 16
17 17 17 17 17 17 17 17 17 17 17 17 17 16 16 16 16 16 16 16 16 16 16 17 17 17 17 16 17 17 17 17 17 17 17 17 17 17 16 16 16 16 16
17 17 17 17 17 17 17 16 16 16 16 16 17 16 16 16 16 16 16 16 16 16 16 16 16 16 16 16 16 16 16 16 16 16 16 17 17 17 16 16 16 16 16
17 17 17 17 17 17 17 16 16 16 16 16 16 16 16 16 16 16 16 16 16 16 16 16 16 16 16 16 16 16 16 16 16 16 16 16 17 17 17 16 16 16 15
17 17 17 17 17 17 16 16 16 16 16 16 16 16 17 17 16 16 16 16 16 16 16 16 16 16 16 15 16 16 16 16 16 16 16 16 17 17 17 16 16 15 15
17 17 17 17 17 16 16 16 16 16 16 16 16 16 16 17 17 16 16 16 16 16 16 16 16 16 15 15 15 16 16 16 16 16 16 16 16 17 16 16 16 15 15
17 17 17 16 16 16 16 16 16 16 16 16 16 16 16 16 16 16 16 16 16 16 16 15 15 16 15 15 15 16 16 16 16 16 16 16 16 16 16 16 16 15 15
17 17 17 16 16 16 16 16 16 16 16 16 15 15 15 15 15 16 16 16 16 15 15 15 15 15 15 15 15 15 16 16 16 16 16 16 16 16 16 16 16 15 15
17 17 17 16 16 16 16 16 16 16 15 15 15 15 15 15 15 15 15 15 15 15 15 15 15 15 15 15 15 15 15 16 16 16 16 16 15 15 16 16 16 15 15
17 17 17 16 16 16 15 15 15 15 15 15 15 15 15 15 15 15 15 15 15 15 15 15 15 15 15 15 15 15 15 15 15 15 15 15 15 15 15 15 15 15 15
16 16 16 16 16 16 15 15 15 15 15 15 15 15 15 15 14 14 14 14 14 15 15 15 15 15 15 15 15 15 15 15 15 15 15 15 15 15 15 15 15 15 15
16 16 16 16 16 16 15 15 15 14 14 14 14 14 14 15 15 14 14 14 14 14 15 15 15 15 15 15 15 15 15 15 15 15 15 15 15 15 15 15 15 15 15
15 16 15 15 15 15 15 15 14 14 14 14 14 14 14 14 14 14 14 14 14 14 14 15 15 14 15 15 15 15 15 15 15 15 15 15 15 15 15 15 15 15 15
16 15 15 15 15 15 14 14 14 14 14 14 14 14 14 14 14 14 14 14 14 14 14 14 14 14 14 15 15 15 15 15 15 16 15 15 15 15 15 15 15 15 15
15 15 15 15 15 15 14 14 14 14 14 14 14 14 14 14 14 14 14 14 14 14 14 14 14 14 14 14 14 14 14 15 15 15 15 15 15 15 15 15 15 15 15
15 15 15 15 15 14 14 14 14 14 14 14 14 14 13 13 13 13 13 13 14 13 14 13 13 13 14 14 14 14 14 14 15 15 15 15 15 15 15 15 15 15 15
15 15 15 15 14 14 14 14 14 14 14 14 14 14 14 13 13 13 13 13 13 13 13 13 13 13 13 14 14 14 14 14 14 14 15 15 15 15 15 15 15 15 15
14 14 14 14 14 14 14 14 14 14 14 14 14 14 14 14 14 13 13 13 13 13 13 13 13 13 13 13 13 13 13 13 14 14 14 14 14 15 15 15 15 15 15
14 14 14 14 14 14 14 15 14 14 14 14 14 14 14 14 14 14 13 13 13 13 13 13 13 13 13 13 13 13 13 13 13 13 13 13 14 14 14 14 14 15 14
13 14 14 14 13 14 14 14 14 14 14 14 14 14 14 14 14 13 13 13 13 13 13 13 13 13 13 13 13 12 12 12 12 12 12 13 13 13 14 14 14 14 14
12 13 13 13 12 13 13 14 14 14 14 14 14 14 13 13 13 13 13 13 13 13 13 13 13 13 12 12 12 12 12 12 12 12 12 12 12 13 13 13 13 13 13
11 11 12 12 12 12 12 13 13 13 13 13 13 13 13 13 13 13 13 13 13 13 13 13 13 13 13 13 12 12 12 12 12 12 12 12 12 12 12 12 12 13 13
11 11 11 11 11 11 12 12 12 12 12 12 13 13 13 13 13 13 13 13 13 13 13 13 13 13 13 13 12 12 12 12 12 12 12 11 11 11 12 12 12 12 12
Wind_Speed
7 6 6 6 7 6 7 4 4 4 4 3 2 1 2 3 3 3 4 7 8 8 6 4 5 5 5 5 4 6 6 6 7 8 9 9 8 7 6 4 3 3 3
7 6 7 7 7 7 6 5 4 4 4 2 2 2 2 2 3 2 3 5 7 9 7 3 2 4 5 4 4 5 6 6 7 8 8 8 8 8 7 6 4 3 2
9 8 6 7 7 8 8 5 4 4 4 3 3 1 2 2 2 2 3 3 4 9 10 6 2 1 3 4 5 6 6 6 7 7 7 7 7 7 7 6 5 4 3
10 7 6 7 8 8 7 6 5 5 5 4 4 3 2 1 0 2 1 1 3 4 9 10 7 3 3 5 6 7 7 7 7 7 6 5 5 4 5 5 6 5 5
11 9 6 6 9 8 7 7 7 6 5 4 4 3 3 2 1 2 1 0 2 1 4 8 10 9 5 4 6 6 6 6 5 5 5 4 3 2 3 4 4 4 4
11 9 6 9 9 8 8 8 8 6 5 5 5 4 4 4 4 3 2 2 2 1 1 2 4 8 8 6 3 5 5 4 4 4 4 3 2 2 2 3 3 3 4
12 11 8 9 9 9 11 11 9 9 8 7 6 6 6 7 6 5 4 4 3 2 3 2 1 2 6 7 6 3 4 4 4 4 3 2 1 1 2 2 3 3 4
12 11 12 10 11 10 12 12 10 8 8 7 7 6 6 7 7 7 6 5 6 5 4 4 4 3 3 4 7 5 5 5 5 4 3 1 1 1 2 2 1 1 1
11 11 11 10 11 10 10 11 11 12 9 9 9 6 5 4 2 5 7 7 6 5 6 6 5 5 4 3 6 7 5 4 4 4 3 2 3 3 3 3 3 4 5
9 10 9 9 9 8 9 10 11 10 10 9 8 8 9 6 5 4 5 7 6 7 7 6 7 6 5 4 3 4 4 2 2 3 3 3 5 6 7 7 7 6 6
6 7 8 7 8 7 9 9 9 10 9 9 8 7 9 8 10 8 6 5 5 7 8 8 7 6 6 6 6 7 6 4 3 3 2 3 4 5 6 6 5 4 3
4 6 7 7 7 7 7 8 8 9 9 9 8 9 9 8 9 9 9 8 6 6 7 7 7 7 7 7 7 9 8 7 6 4 3 3 3 3 4 3 2 1 1
5 7 7 7 6 6 6 6 7 7 8 8 9 8 9 10 9 8 9 9 7 5 5 6 8 8 9 9 8 11 10 9 8 6 5 4 3 3 2 1 1 1 2
6 6 6 6 5 5 5 5 5 6 6 7 8 8 8 8 8 9 9 8 7 6 6 7 5 7 9 10 10 13 11 14 11 9 7 6 5 4 3 2 1 2 2
4 5 6 6 6 6 6 6 5 6 6 6 7 8 8 8 8 9 9 9 8 7 6 6 5 4 5 7 8 11 12 15 15 12 10 9 7 7 6 5 4 3 4
6 6 7 8 8 8 8 7 6 5 6 5 5 7 8 8 8 9 9 9 9 9 6 4 4 4 3 4 7 11 12 14 16 15 14 12 11 10 9 8 7 6 5
6 7 7 7 8 8 8 7 6 6 6 6 6 6 8 9 8 8 8 9 8 8 8 5 4 5 5 6 4 8 10 11 13 19 17 15 14 13 12 10 9 9 8
4 5 5 6 6 6 7 7 7 6 6 5 6 6 7 7 9 9 8 10 9 9 8 8 6 6 8 7 6 7 7 9 10 15 19 18 17 16 15 14 12 12 11
2 3 4 5 5 6 7 7 7 7 7 6 6 6 7 7 8 8 9 9 8 8 8 8 7 6 6 5 5 6 8 7 9 9 15 18 19 18 18 17 17 16 15
1 1 3 5 5 6 7 7 8 8 8 7 6 5 5 6 7 7 7 8 8 8 8 8 7 6 5 4 4 5 6 6 7 8 11 13 16 20 21 21 20 19 19
1 2 3 4 4 5 5 7 8 8 9 8 6 6 4 2 4 5 5 5 5 5 5 5 6 5 5 4 4 5 6 6 6 7 8 9 10 12 15 20 23 23 21
3 2 3 3 3 3 3 4 8 8 8 8 7 6 4 5 5 5 4 5 5 4 3 3 4 4 5 5 5 4 4 4 4 4 6 8 8 9 10 12 15 20 22
6 6 5 4 3 6 7 5 7 8 8 8 7 6 4 4 4 4 5 7 6 4 4 3 3 3 3 4 5 5 4 4 4 1 2 6 6 8 9 10 9 12 15
8 7 7 7 6 10 12 9 6 7 6 7 7 7 7 7 5 3 4 4 2 3 4 5 3 2 1 1 2 2 2 3 2 1 2 3 4 5 6 8 8 11 13
7 7 8 8 8 10 15 13 10 3 3 4 5 6 7 7 5 1 6 5 4 2 4 5 5 3 0 1 2 2 3 3 3 3 3 2 3 3 5 4 2 4 8
6 6 7 7 8 9 13 14 13 4 3 1 2 3 1 3 2 3 7 7 6 3 2 3 4 6 6 7 8 6 3 3 3 2 3 2 1 1 2 2 3 4 4
Wind_Direction
194 177 185 180 186 178 178 194 210 175 193 165 131 90 78 68 53 30 70 57 28 8 337 289 235 222 220 225 229 214 198 188 175 167 165 166 167 170 174 175 173 163 145
197 188 189 189 189 186 184 190 175 161 182 163 137 110 53 69 72 45 52 87 63 35 15 343 263 235 218 202 197 192 189 181 175 176 180 185 188 189 187 189 197 196 184
199 195 193 191 191 189 190 198 170 173 159 162 178 169 96 31 31 34 43 38 80 69 49 34 11 232 177 159 149 154 161 163 162 164 168 175 184 190 190 196 204 211 216
203 199 198 196 194 192 196 193 201 194 181 191 186 176 183 165 255 351 308 63 52 67 76 59 53 68 131 138 133 136 142 146 146 145 146 152 160 178 198 211 219 223 220
206 202 203 200 195 201 205 203 209 208 203 202 201 199 216 219 222 254 262 352 91 43 78 89 79 63 67 121 134 135 139 144 146 147 149 159 176 199 218 221 220 221 218
211 211 207 210 205 209 216 219 214 219 227 217 219 216 226 227 229 220 249 267 260 77 40 94 120 93 73 67 104 140 144 153 162 163 160 169 192 217 227 226 218 224 234
214 217 223 220 214 218 222 225 221 220 224 222 224 226 224 227 230 210 221 238 227 222 217 190 179 152 124 105 72 94 138 149 152 154 154 157 182 204 204 214 224 238 250
219 223 223 224 221 225 230 232 224 227 225 219 227 237 240 221 218 220 216 227 237 214 232 216 194 197 193 162 100 83 92 120 125 126 127 123 118 144 155 162 160 111 59
218 223 227 227 228 226 231 231 224 225 221 223 229 233 252 259 231 206 217 221 226 234 232 229 218 190 188 182 160 128 99 92 123 124 109 89 90 100 115 126 115 102 91
216 219 226 229 231 226 227 228 225 225 221 223 227 233 244 256 254 240 208 218 220 231 239 223 234 219 193 192 161 118 132 123 130 134 117 100 103 101 102 103 101 98 95
217 210 214 216 227 227 230 229 224 224 224 227 229 230 240 250 251 253 244 218 213 224 230 232 227 226 209 206 197 164 164 170 157 150 140 126 121 118 114 112 109 105 93
224 206 204 210 220 225 229 231 229 230 237 239 236 235 236 240 239 240 244 240 230 215 209 217 231 223 221 222 203 159 184 188 177 167 152 139 131 134 136 136 128 97 12
233 211 202 207 215 223 224 225 227 229 233 239 242 244 243 246 253 246 244 243 232 224 208 214 219 220 217 221 207 185 201 200 195 190 182 172 162 158 168 194 265 313 331
244 212 195 196 199 206 209 213 227 226 231 231 241 247 253 255 253 248 245 241 233 230 228 228 201 212 216 220 216 192 207 199 204 205 203 197 191 188 190 204 255 301 321
227 195 184 187 188 194 202 204 223 226 233 235 240 245 248 255 255 250 243 234 231 230 224 231 217 202 205 220 193 211 221 196 200 208 212 213 210 207 207 213 228 259 292
208 191 191 192 188 192 194 200 215 218 228 230 238 247 249 249 251 251 244 238 234 237 233 219 215 194 174 216 208 230 230 179 196 207 212 215 217 217 218 222 229 243 263
204 199 200 200 191 192 195 196 213 210 228 232 229 238 245 247 247 247 246 241 235 230 234 232 229 231 235 250 219 234 233 217 212 204 210 215 219 221 224 228 233 239 250
211 208 197 206 202 203 206 206 214 218 229 240 244 246 250 248 248 246 242 239 234 229 231 234 226 228 243 256 262 255 241 234 236 198 204 214 220 223 225 228 233 239 245
191 212 211 223 222 224 223 224 226 228 231 236 244 253 263 263 261 252 243 240 235 232 227 234 236 220 229 234 244 252 248 246 244 211 204 217 222 226 230 231 233 237 241
175 229 239 241 242 242 242 242 241 235 234 234 236 245 261 266 265 267 257 249 240 233 225 229 234 226 216 206 226 239 244 238 243 236 223 223 223 225 231 234 235 236 238
294 280 270 260 252 251 251 251 244 238 234 229 231 236 245 294 325 302 296 288 268 247 232 229 229 224 209 183 209 223 243 252 252 242 243 230 225 229 229 232 235 238 237
16 346 308 291 277 279 353 289 263 244 240 232 229 233 218 219 211 225 271 304 313 288 253 226 218 217 210 203 205 208 230 245 258 229 242 251 238 242 241 244 223 222 229
36 32 21 14 20 29 3 317 261 257 240 232 231 229 226 234 241 236 204 222 238 236 258 271 236 218 206 197 198 204 216 235 253 286 250 270 254 250 255 248 221 220 229
46 45 40 38 44 34 16 360 315 252 242 233 229 232 228 229 224 259 250 249 248 217 215 241 261 257 239 182 192 199 198 229 252 232 215 270 272 264 274 262 206 222 237
42 46 47 42 41 35 23 12 343 292 261 244 237 239 243 240 123 261 266 264 260 236 194 246 298 304 334 185 206 195 189 213 235 217 190 235 312 313 299 288 150 203 241
39 46 51 44 39 33 25 15 356 348 335 304 250 235 222 294 71 251 257 262 268 277 261 209 220 221 228 212 207 233 235 235 246 231 174 193 256 333 313 355 0 347 303
Height
1554 1555 1556 1556 1558 1560 1560 1561 1562 1563 1563 1564 1563 1564 1564 1563 1562 1561 1559 1558 1557 1557 1557 1557 1557 1557 1557 1557 1558 1559 1560 1560 1561 1562 1563 1564 1565 1565 1566 1567 1567 1567 1566
1553 1554 1555 1555 1557 1559 1560 1561 1562 1562 1562 1563 1563 1563 1563 1563 1562 1561 1560 1558 1557 1556 1556 1556 1556 1556 1556 1556 1557 1558 1559 1560 1561 1561 1562 1563 1564 1564 1565 1565 1566 1566 1565
1552 1553 1554 1555 1556 1557 1559 1560 1561 1561 1561 1561 1562 1562 1562 1561 1561 1561 1561 1560 1559 1557 1556 1556 1555 1556 1555 1555 1556 1557 1558 1559 1560 1560 1561 1562 1562 1563 1563 1564 1564 1564 1564
1550 1552 1553 1554 1555 1556 1558 1559 1560 1560 1561 1561 1562 1561 1561 1560 1560 1560 1560 1561 1560 1559 1557 1556 1555 1555 1556 1556 1556 1556 1557 1558 1559 1560 1560 1561 1561 1561 1562 1562 1562 1562 1563
1548 1550 1551 1552 1553 1554 1556 1557 1558 1559 1560 1560 1561 1560 1561 1560 1559 1559 1560 1560 1559 1559 1558 1556 1556 1555 1556 1556 1556 1555 1556 1557 1558 1559 1559 1560 1560 1560 1560 1560 1560 1561 1561
1544 1547 1548 1550 1551 1552 1553 1554 1555 1556 1557 1558 1559 1559 1559 1559 1558 1558 1558 1559 1560 1559 1559 1558 1558 1556 1556 1556 1556 1555 1555 1556 1557 1558 1558 1558 1558 1558 1558 1558 1559 1559 1559
1541 1543 1545 1547 1548 1549 1550 1551 1552 1553 1554 1556 1557 1557 1557 1556 1557 1556 1556 1557 1558 1558 1558 1558 1558 1558 1557 1556 1556 1555 1555 1556 1557 1557 1557 1557 1557 1557 1557 1557 1557 1557 1558
1538 1540 1541 1543 1544 1545 1547 1548 1549 1550 1551 1553 1554 1554 1555 1555 1553 1554 1554 1554 1556 1557 1557 1557 1558 1556 1557 1557 1555 1555 1555 1556 1556 1556 1557 1557 1557 1556 1556 1556 1556 1556 1557
1535 1536 1538 1539 1540 1542 1543 1545 1546 1547 1548 1549 1551 1552 1552 1551 1551 1552 1551 1552 1553 1554 1555 1556 1557 1556 1556 1556 1555 1555 1555 1555 1556 1556 1556 1556 1556 1556 1556 1556 1556 1556 1556
1531 1533 1534 1535 1537 1538 1540 1541 1542 1543 1545 1546 1547 1547 1549 1549 1549 1549 1549 1549 1550 1551 1552 1553 1554 1556 1555 1554 1553 1553 1554 1555 1555 1555 1556 1556 1556 1556 1555 1555 1555 1555 1554
1528 1529 1531 1532 1534 1535 1536 1537 1538 1539 1541 1542 1543 1544 1545 1545 1545 1546 1546 1546 1546 1547 1548 1549 1551 1552 1553 1553 1552 1552 1553 1554 1554 1554 1554 1555 1555 1555 1555 1555 1554 1554 1553
1525 1526 1527 1529 1531 1532 1532 1533 1534 1535 1536 1538 1539 1539 1540 1541 1541 1541 1541 1542 1543 1545 1545 1546 1547 1549 1549 1550 1550 1550 1551 1552 1552 1552 1553 1553 1554 1554 1554 1553 1553 1552 1551
1523 1524 1525 1526 1528 1529 1529 1530 1531 1532 1533 1534 1534 1535 1536 1536 1537 1537 1537 1538 1540 1542 1542 1543 1544 1545 1546 1547 1547 1547 1548 1549 1550 1550 1551 1551 1552 1552 1552 1552 1551 1550 1549
1523 1523 1523 1524 1526 1527 1527 1528 1529 1529 1530 1530 1530 1531 1531 1532 1532 1532 1533 1535 1536 1538 1539 1541 1542 1542 1543 1543 1544 1545 1545 1546 1547 1547 1548 1549 1549 1550 1550 1550 1549 1548 1547
1522 1522 1522 1523 1524 1525 1526 1526 1527 1527 1527 1527 1527 1527 1527 1527 1527 1527 1528 1530 1532 1533 1535 1537 1539 1540 1540 1540 1541 1541 1542 1543 1544 1544 1545 1546 1546 1547 1547 1547 1547 1546 1545
1520 1521 1522 1522 1523 1523 1524 1524 1525 1524 1524 1523 1523 1523 1523 1523 1523 1523 1524 1525 1527 1529 1530 1532 1534 1536 1536 1537 1538 1539 1540 1539 1540 1541 1542 1543 1543 1544 1544 1545 1545 1544 1544
1518 1519 1520 1521 1522 1522 1522 1522 1523 1522 1521 1521 1521 1521 1521 1520 1519 1520 1520 1521 1522 1524 1525 1527 1529 1531 1533 1535 1536 1536 1537 1536 1537 1538 1539 1540 1540 1541 1541 1542 1542 1542 1541
1517 1517 1518 1519 1520 1520 1521 1521 1520 1520 1520 1520 1520 1520 1519 1518 1516 1516 1516 1517 1518 1519 1521 1522 1523 1525 1528 1530 1532 1533 1533 1534 1535 1534 1535 1536 1537 1538 1538 1539 1539 1539 1538
1515 1515 1516 1516 1517 1518 1518 1518 1519 1519 1519 1519 1519 1518 1518 1516 1514 1513 1513 1513 1513 1514 1515 1517 1518 1520 1522 1524 1526 1528 1529 1530 1530 1530 1531 1532 1533 1534 1534 1535 1535 1535 1535
1513 1513 1514 1514 1514 1514 1515 1516 1516 1517 1517 1517 1517 1516 1516 1514 1512 1512 1510 1510 1510 1510 1511 1512 1514 1516 1517 1519 1521 1523 1524 1525 1525 1526 1526 1527 1528 1529 1529 1530 1531 1531 1530
1512 1511 1511 1511 1511 1511 1512 1513 1514 1514 1515 1515 1515 1515 1514 1513 1511 1510 1509 1508 1508 1508 1508 1508 1509 1511 1512 1514 1515 1517 1519 1520 1520 1521 1522 1522 1523 1523 1524 1525 1525 1526 1525
1511 1510 1509 1509 1508 1509 1509 1509 1510 1511 1512 1513 1513 1513 1513 1511 1510 1509 1508 1507 1506 1506 1506 1506 1506 1507 1508 1509 1511 1513 1514 1515 1515 1516 1517 1518 1518 1519 1520 1520 1520 1520 1520
1509 1507 1507 1506 1506 1505 1505 1506 1507 1508 1509 1509 1510 1511 1511 1510 1509 1509 1508 1507 1506 1505 1505 1505 1505 1505 1506 1506 1507 1509 1510 1510 1511 1512 1512 1513 1514 1514 1515 1516 1515 1515 1515
1508 1507 1505 1504 1504 1503 1503 1503 1504 1504 1505 1506 1506 1507 1508 1508 1508 1508 1508 1508 1507 1506 1505 1504 1505 1504 1504 1505 1506 1507 1507 1507 1508 1508 1508 1508 1509 1509 1510 1511 1510 1510 1511
1509 1508 1506 1505 1503 1502 1501 1501 1501 1501 1501 1502 1502 1503 1504 1505 1505 1505 1506 1506 1506 1506 1504 1504 1503 1503 1503 1503 1504 1504 1505 1505 1505 1505 1505 1505 1504 1504 1505 1506 1505 1505 1506
1510 1508 1506 1505 1503 1502 1501 1500 1499 1499 1499 1499 1499 1499 1499 1501 1501 1502 1503 1504 1505 1505 1504 1503 1502 1502 1501 1501 1501 1502 1502 1503 1502 1502 1502 1502 1502 1502 1502 1501 1501 1502 1502